User: anonymous   Login
Location: Decatur(IL)
(39.8400°N, 88.9550°W)
Time: 06:54:04
(UTC-06:00)
Language:

Cosmos 2242 Rocket - Orbit

View from above orbital plane
View from above orbital plane
View from above satellite
View from above satellite

Ground track
Ground track

The orbit data is extracted from the following two-line orbital elements,

1 22627U 93024B   18052.93223803 +.00000096 +00000-0 +10142-4 0  9990
2 22627 082.5203 228.1960 0022336 232.0526 127.8668 14.78108907339047
Epoch (UTC): 21 February 2018 22:22:25
Eccentricity: 0.0022336
inclination: 82.5203°
perigee height: 619 km
apogee height: 651 km
right ascension of ascending node: 228.1960°
argument of perigee: 232.0526°
revolutions per day: 14.78108907
mean anomaly at epoch: 127.8668°
orbit number at epoch: 33904

The dashed part of the orbit path shows where the satellite is in the earth's shadow,  

DLR